TimeCST,TemperatureF,Dew PointF,Humidity,Sea Level PressureIn,VisibilityMPH,Wind Direction,Wind SpeedMPH,Gust SpeedMPH,PrecipitationIn,Events,Conditions,WindDirDegrees,DateUTC
12:53 AM,66.0,64.0,93,29.98,3.0,SE,8.1,-,N/A,,Overcast,130,2013-02-06 06:53:00
1:53 AM,66.0,64.0,93,29.99,5.0,South,9.2,-,0.00,Rain,Light Rain,170,2013-02-06 07:53:00
2:06 AM,66.2,64.4,94,30.01,8.0,South,8.1,-,0.00,,Overcast,180,2013-02-06 08:06:00
2:21 AM,66.2,64.4,94,30.00,7.0,SSE,6.9,-,0.00,Rain,Light Rain,160,2013-02-06 08:21:00
2:35 AM,66.2,64.4,94,30.00,6.0,SSE,6.9,-,0.00,,Overcast,150,2013-02-06 08:35:00
2:53 AM,66.0,64.0,93,29.98,7.0,SSE,8.1,-,0.00,Rain,Light Rain,150,2013-02-06 08:53:00
3:53 AM,66.0,64.0,93,29.96,7.0,SE,8.1,-,0.00,Rain,Light Rain,130,2013-02-06 09:53:00
4:53 AM,66.0,64.0,93,29.96,9.0,SSE,9.2,-,0.00,,Overcast,150,2013-02-06 10:53:00
5:53 AM,66.2,64.4,94,29.96,10.0,SE,10.4,-,N/A,,Overcast,140,2013-02-06 11:53:00
6:53 AM,66.0,64.0,93,29.99,9.0,South,6.9,-,0.00,Rain,Light Rain,190,2013-02-06 12:53:00
7:35 AM,64.4,64.4,100,30.01,7.0,SSE,3.5,-,0.00,Rain,Light Rain,160,2013-02-06 13:35:00
7:53 AM,64.9,64.0,97,30.01,5.0,South,4.6,-,0.00,Rain,Light Rain,170,2013-02-06 13:53:00
8:45 AM,64.4,64.4,100,30.02,6.0,SSE,8.1,-,0.00,Rain,Light Rain,160,2013-02-06 14:45:00
8:53 AM,64.9,64.0,97,30.02,6.0,SSE,6.9,-,0.00,Rain,Light Rain,160,2013-02-06 14:53:00
9:53 AM,66.0,64.0,93,30.01,6.0,SE,6.9,-,0.00,Rain,Light Rain,140,2013-02-06 15:53:00
10:08 AM,66.2,64.4,94,30.02,7.0,SSE,8.1,-,0.00,Rain,Light Rain,150,2013-02-06 16:08:00
10:21 AM,66.2,64.4,94,30.02,4.0,ESE,10.4,-,0.00,Rain,Heavy Rain,110,2013-02-06 16:21:00
10:33 AM,64.4,60.8,88,30.03,6.0,SSE,10.4,-,N/A,Rain,Rain,150,2013-02-06 16:33:00
10:40 AM,64.4,60.8,88,30.03,4.0,SSE,8.1,-,N/A,Rain,Heavy Rain,150,2013-02-06 16:40:00
10:53 AM,64.0,61.0,90,30.02,6.0,SSE,9.2,-,N/A,Rain,Light Rain,160,2013-02-06 16:53:00
11:00 AM,64.4,62.6,94,30.02,10.0,SSE,11.5,-,N/A,Rain,Light Rain,150,2013-02-06 17:00:00
11:13 AM,64.4,60.8,88,30.01,10.0,SSE,8.1,-,N/A,Rain,Light Rain,150,2013-02-06 17:13:00
11:53 AM,64.0,62.1,93,29.99,10.0,SE,6.9,-,N/A,Rain,Light Rain,140,2013-02-06 17:53:00
12:21 PM,64.4,62.6,94,29.98,10.0,ESE,8.1,-,N/A,,Scattered Clouds,120,2013-02-06 18:21:00
12:49 PM,64.4,62.6,94,29.96,10.0,East,4.6,-,N/A,,Partly Cloudy,90,2013-02-06 18:49:00
12:53 PM,64.9,62.1,90,29.94,10.0,East,5.8,-,N/A,,Partly Cloudy,100,2013-02-06 18:53:00
1:53 PM,66.9,62.1,84,29.90,10.0,SE,10.4,-,N/A,,Scattered Clouds,130,2013-02-06 19:53:00
2:53 PM,69.1,61.0,75,29.88,10.0,SSE,8.1,-,0.15,,Mostly Cloudy,150,2013-02-06 20:53:00
3:23 PM,69.8,60.8,73,29.88,10.0,ESE,5.8,-,N/A,,Scattered Clouds,120,2013-02-06 21:23:00
3:53 PM,70.0,60.1,71,29.87,10.0,ESE,8.1,-,N/A,,Clear,110,2013-02-06 21:53:00
4:53 PM,69.1,60.1,73,29.87,10.0,ESE,8.1,-,N/A,,Mostly Cloudy,120,2013-02-06 22:53:00
5:53 PM,66.0,60.1,81,29.88,10.0,ESE,8.1,-,N/A,,Partly Cloudy,120,2013-02-06 23:53:00
6:53 PM,64.9,59.0,81,29.89,10.0,ESE,4.6,-,N/A,,Scattered Clouds,110,2013-02-07 00:53:00
7:53 PM,64.0,60.1,87,29.92,10.0,SE,5.8,-,N/A,,Overcast,140,2013-02-07 01:53:00
8:53 PM,62.1,57.9,86,29.93,10.0,SE,8.1,-,N/A,,Clear,130,2013-02-07 02:53:00
9:53 PM,61.0,55.9,83,29.94,10.0,SE,5.8,-,N/A,,Clear,130,2013-02-07 03:53:00
10:15 PM,60.8,55.4,82,29.95,10.0,ESE,5.8,-,N/A,,Mostly Cloudy,120,2013-02-07 04:15:00
10:53 PM,61.0,57.0,87,29.93,10.0,SE,6.9,-,N/A,,Overcast,130,2013-02-07 04:53:00
11:53 PM,61.0,57.0,87,29.94,10.0,SE,3.5,-,N/A,,Overcast,140,2013-02-07 05:53:00